When you browse on this site, cookies collect data to enhance your experience and personalize the content and advertising you see.
Visit our Privacy Policy to learn more. By continuing to use the site, you agree to this use of cookies and data.
  • în România
  • Lista ţărilor
  • Pe 7 zile
  • Temperatura apei
  • Meteo pe hartă
  • Widget-uri
  • user-avatar
    Intrare

    Meteo pe oră la Franceville

    Astăzi, 6 Decembrie, Vineri

    Timp Temperatura Precipitaţii Vânt Presiune Umiditate
    00:00 +22°C° 1.3 mm 0 m/s 730 mmHg 96%
    01:00 +24°C° 0 mm 1 m/s 730 mmHg 97%
    02:00 +24°C° 0.3 mm 1 m/s 730 mmHg 97%
    03:00 +24°C° 0.3 mm 1 m/s 730 mmHg 97%
    04:00 +24°C° 0.3 mm 1 m/s 730 mmHg 98%
    05:00 +24°C° 0.1 mm 1 m/s 730 mmHg 97%
    06:00 +24°C° 0.1 mm 1 m/s 731 mmHg 97%
    07:00 +24°C° 0.1 mm 1 m/s 731 mmHg 97%
    08:00 +25°C° 0 mm 1 m/s 731 mmHg 90%
    09:00 +27°C° 0 mm 1 m/s 731 mmHg 84%
    10:00 +28°C° 0 mm 1 m/s 731 mmHg 78%
    11:00 +30°C° 0.3 mm 1 m/s 731 mmHg 71%
    12:00 +30°C° 0.3 mm 0 m/s 730 mmHg 65%
    13:00 +32°C° 0.3 mm 0 m/s 729 mmHg 58%
    14:00 +30°C° 1.4 mm 0 m/s 729 mmHg 67%
    15:00 +31°C° 1.4 mm 1 m/s 729 mmHg 76%
    16:00 +29°C° 1.4 mm 1 m/s 728 mmHg 85%
    17:00 +28°C° 0.7 mm 1 m/s 729 mmHg 88%
    18:00 +27°C° 0.7 mm 1 m/s 729 mmHg 90%
    19:00 +25°C° 0.7 mm 1 m/s 730 mmHg 92%
    20:00 +25°C° 0.3 mm 1 m/s 730 mmHg 93%
    21:00 +25°C° 0.3 mm 1 m/s 731 mmHg 94%
    22:00 +25°C° 0.3 mm 1 m/s 731 mmHg 95%
    23:00 +24°C° 0.3 mm 1 m/s 731 mmHg 96%

    Mâine, 7 Decembrie, Sâmbătă

    Timp Temperatura Precipitaţii Vânt Presiune Umiditate
    00:00 +24°C° 0.3 mm 1 m/s 731 mmHg 97%
    01:00 +24°C° 0.3 mm 1 m/s 731 mmHg 97%
    02:00 +24°C° 1.2 mm 1 m/s 730 mmHg 98%
    03:00 +24°C° 1.2 mm 1 m/s 730 mmHg 98%
    04:00 +24°C° 1.2 mm 1 m/s 730 mmHg 98%
    05:00 +24°C° 1.1 mm 1 m/s 731 mmHg 98%
    06:00 +24°C° 1.1 mm 1 m/s 731 mmHg 98%
    07:00 +24°C° 1.1 mm 1 m/s 731 mmHg 98%
    08:00 +24°C° 0.2 mm 1 m/s 732 mmHg 96%
    09:00 +25°C° 0.2 mm 1 m/s 732 mmHg 95%
    10:00 +25°C° 0.2 mm 2 m/s 732 mmHg 93%
    11:00 +25°C° 0.1 mm 2 m/s 732 mmHg 92%
    12:00 +25°C° 0.1 mm 2 m/s 731 mmHg 91%
    13:00 +25°C° 0.1 mm 1 m/s 731 mmHg 90%
    14:00 +25°C° 0 mm 1 m/s 730 mmHg 90%
    15:00 +25°C° 0 mm 1 m/s 729 mmHg 90%
    16:00 +23°C° 0 mm 0 m/s 729 mmHg 90%
    17:00 +23°C° 0 mm 0 m/s 729 mmHg 92%
    18:00 +22°C° 0 mm 0 m/s 729 mmHg 94%
    19:00 +22°C° 0 mm 0 m/s 730 mmHg 96%
    20:00 +22°C° 0 mm 0 m/s 730 mmHg 95%
    21:00 +21°C° 0 mm 0 m/s 730 mmHg 95%
    22:00 +21°C° 0 mm 0 m/s 731 mmHg 95%
    23:00 +21°C° 0 mm 0 m/s 731 mmHg 96%

    Poimâine, 8 Decembrie, Duminică

    Timp Temperatura Precipitaţii Vânt Presiune Umiditate
    00:00 +21°C° 0 mm 0 m/s 731 mmHg 96%
    01:00 +21°C° 0 mm 0 m/s 730 mmHg 96%
    02:00 +21°C° 0 mm 0 m/s 730 mmHg 96%
    03:00 +21°C° 0 mm 0 m/s 730 mmHg 95%
    04:00 +21°C° 0 mm 0 m/s 730 mmHg 95%
    05:00 +21°C° 0 mm 0 m/s 730 mmHg 94%
    06:00 +24°C° 0 mm 1 m/s 731 mmHg 92%
    07:00 +24°C° 0 mm 1 m/s 731 mmHg 91%
    08:00 +25°C° 0 mm 1 m/s 731 mmHg 84%
    09:00 +25°C° 0 mm 0 m/s 731 mmHg 76%
    10:00 +27°C° 0 mm 0 m/s 731 mmHg 69%
    11:00 +28°C° 0 mm 0 m/s 731 mmHg 65%
    12:00 +29°C° 0 mm 0 m/s 730 mmHg 60%
    13:00 +32°C° 0 mm 1 m/s 730 mmHg 55%
    14:00 +32°C° 0 mm 1 m/s 729 mmHg 54%
    15:00 +33°C° 0 mm 1 m/s 729 mmHg 52%
    16:00 +33°C° 0 mm 1 m/s 728 mmHg 50%
    17:00 +31°C° 0.1 mm 1 m/s 729 mmHg 59%
    18:00 +29°C° 0.1 mm 1 m/s 729 mmHg 69%
    19:00 +26°C° 0.1 mm 1 m/s 729 mmHg 78%
    20:00 +26°C° 0.2 mm 1 m/s 730 mmHg 82%
    21:00 +23°C° 0.2 mm 0 m/s 730 mmHg 87%
    22:00 +22°C° 0.2 mm 0 m/s 731 mmHg 91%
    23:00 +22°C° 0.1 mm 0 m/s 731 mmHg 92%

    9 Decembrie, Luni

    Timp Temperatura Precipitaţii Vânt Presiune Umiditate
    00:00 +22°C° 0.1 mm 0 m/s 730 mmHg 94%
    01:00 +24°C° 0.1 mm 1 m/s 730 mmHg 95%
    02:00 +23°C° 0 mm 1 m/s 730 mmHg 95%
    03:00 +23°C° 0 mm 1 m/s 730 mmHg 96%
    04:00 +23°C° 0 mm 1 m/s 730 mmHg 96%
    05:00 +23°C° 0 mm 1 m/s 730 mmHg 95%
    06:00 +24°C° 0 mm 1 m/s 730 mmHg 93%
    07:00 +22°C° 0 mm 0 m/s 731 mmHg 92%
    08:00 +27°C° 0 mm 1 m/s 731 mmHg 81%
    09:00 +29°C° 0 mm 1 m/s 731 mmHg 70%
    10:00 +31°C° 0 mm 1 m/s 731 mmHg 59%
    11:00 +33°C° 0 mm 1 m/s 731 mmHg 55%
    12:00 +34°C° 0 mm 1 m/s 730 mmHg 50%
    13:00 +35°C° 0 mm 1 m/s 730 mmHg 46%
    14:00 +33°C° 0.7 mm 1 m/s 729 mmHg 58%
    15:00 +31°C° 0.7 mm 2 m/s 729 mmHg 70%
    16:00 +29°C° 0.7 mm 2 m/s 728 mmHg 82%
    17:00 +28°C° 1 mm 1 m/s 728 mmHg 85%
    18:00 +27°C° 1 mm 1 m/s 729 mmHg 88%
    19:00 +23°C° 1 mm 0 m/s 729 mmHg 91%
    20:00 +23°C° 0.5 mm 0 m/s 730 mmHg 91%
    21:00 +23°C° 0.5 mm 0 m/s 730 mmHg 92%
    22:00 +23°C° 0.5 mm 0 m/s 731 mmHg 92%
    23:00 +22°C° 0.1 mm 0 m/s 731 mmHg 93%

    10 Decembrie, Marţi

    Timp Temperatura Precipitaţii Vânt Presiune Umiditate
    00:00 +22°C° 0.1 mm 0 m/s 731 mmHg 93%
    01:00 +22°C° 0.1 mm 0 m/s 731 mmHg 94%
    02:00 +24°C° 0 mm 1 m/s 730 mmHg 94%
    03:00 +24°C° 0 mm 1 m/s 730 mmHg 94%
    04:00 +24°C° 0 mm 1 m/s 730 mmHg 95%
    05:00 +24°C° 0 mm 1 m/s 730 mmHg 94%
    06:00 +24°C° 0 mm 1 m/s 730 mmHg 94%
    07:00 +22°C° 0 mm 0 m/s 731 mmHg 94%
    08:00 +25°C° 0 mm 1 m/s 731 mmHg 89%
    09:00 +26°C° 0 mm 1 m/s 731 mmHg 85%
    10:00 +27°C° 0 mm 1 m/s 731 mmHg 81%
    11:00 +28°C° 0.2 mm 1 m/s 731 mmHg 75%
    12:00 +30°C° 0.2 mm 1 m/s 731 mmHg 69%
    13:00 +31°C° 0.2 mm 1 m/s 730 mmHg 62%
    14:00 +31°C° 0.3 mm 1 m/s 730 mmHg 62%
    15:00 +31°C° 0.3 mm 1 m/s 729 mmHg 62%
    16:00 +31°C° 0.3 mm 2 m/s 728 mmHg 62%
    17:00 +29°C° 0.5 mm 1 m/s 729 mmHg 72%
    18:00 +27°C° 0.5 mm 1 m/s 729 mmHg 81%
    19:00 +25°C° 0.5 mm 1 m/s 729 mmHg 90%
    20:00 +23°C° 0.3 mm 0 m/s 730 mmHg 91%
    21:00 +23°C° 0.3 mm 0 m/s 730 mmHg 91%
    22:00 +22°C° 0.3 mm 0 m/s 731 mmHg 92%
    23:00 +22°C° 0.1 mm 0 m/s 731 mmHg 92%

    11 Decembrie, Miercuri

    Timp Temperatura Precipitaţii Vânt Presiune Umiditate
    00:00 +22°C° 0.1 mm 0 m/s 731 mmHg 92%
    01:00 +22°C° 0.1 mm 0 m/s 730 mmHg 92%
    02:00 +22°C° 0 mm 0 m/s 730 mmHg 93%
    03:00 +22°C° 0 mm 0 m/s 730 mmHg 94%
    04:00 +22°C° 0 mm 0 m/s 730 mmHg 94%
    05:00 +24°C° 0 mm 1 m/s 730 mmHg 94%
    06:00 +24°C° 0 mm 1 m/s 731 mmHg 93%
    07:00 +24°C° 0 mm 1 m/s 731 mmHg 92%
    08:00 +26°C° 0 mm 1 m/s 731 mmHg 83%
    09:00 +28°C° 0 mm 1 m/s 732 mmHg 74%
    10:00 +30°C° 0 mm 1 m/s 732 mmHg 65%
    11:00 +31°C° 0.6 mm 1 m/s 731 mmHg 62%
    12:00 +32°C° 0.6 mm 1 m/s 731 mmHg 58%
    13:00 +33°C° 0.6 mm 1 m/s 730 mmHg 55%
    14:00 +31°C° 1 mm 1 m/s 730 mmHg 65%
    15:00 +29°C° 1 mm 1 m/s 729 mmHg 75%
    16:00 +27°C° 1 mm 1 m/s 728 mmHg 85%
    17:00 +26°C° 0.2 mm 1 m/s 728 mmHg 87%
    18:00 +23°C° 0.2 mm 0 m/s 729 mmHg 90%
    19:00 +23°C° 0.2 mm 0 m/s 729 mmHg 92%
    20:00 +22°C° 0.1 mm 0 m/s 730 mmHg 92%
    21:00 +22°C° 0.1 mm 0 m/s 730 mmHg 92%
    22:00 +22°C° 0.1 mm 0 m/s 730 mmHg 91%
    23:00 +22°C° 0 mm 0 m/s 730 mmHg 92%
    Arată mai mult